Orbital Elements at Epoch 2459000.5 (2020-May-31.0) TDB
Reference: JPL 22 (heliocentric ecliptic J2000)
Element | Value | Uncertainty (1-sigma) | Units |
e | .1319834627126033 | 3.1589e-08 | |
a | 2.564626503439565 | 1.0404e-08 | au |
q | 2.226138216951095 | 7.8055e-08 | au |
i | 4.836547900285299 | 4.778e-06 | deg |
node | 245.2905537313765 | 4.086e-05 | deg |
peri | 257.1287604850545 | 4.5378e-05 | deg |
M | 69.31965632739585 | 1.9238e-05 | deg |
tp | 2458711.639262258759 (2019-Aug-16.13926226) | 7.9762e-05 | TDB |
period | 1500.149756884308 4.11 | 9.1284e-06 2.499e-08 | d yr |
n | .2399760412904985 | 1.4603e-09 | deg/d |
Q | 2.903114789928035 | 1.1777e-08 | au |
|
| | Orbit Determination Parameters
Additional Information
|